Other Public Products
Issued by NWS Grand Forks, ND

Home | Current Version | Previous Version | Text Only | Print | Product List | Glossary Off
Versions: 1 2 3 4 5 6 7 8 9 10 11 12 13 14 15 16 17 18 19 20 21 22 23 24 25 26 27 28 29 30 31 32 33 34 35 36 37 38 39 40 41 42 43 44 45 46 47 48 49 50

000
FPUS83 KFGF 031610
OPUFGF
PRAIRIE TO PINES WEATHER ROUNDUP
NATIONAL WEATHER SERVICE EASTERN NORTH DAKOTA/GRAND FORKS ND
1100 AM CDT FRI JUL 03 2015

 **SATELLITE DATA USED TO AUGMENT SKY COVER AT AUTOMATED STATIONS**
 *****  WEATHER ACROSS EASTERN NORTH DAKOTA  *****

CITY           SKY/WX    TMP DP  RH WIND       PRES   REMARKS
GRAND FORKS    HAZE      76  66  71 NW5       29.93S VSB 1
GRAND FORKS AF MOSUNNY   76  64  65 N6        29.94S HAZE
GRAND CITY NWS   N/A     75 N/A N/A N10         N/A
BUXTON         NOT AVBL
DEVILS LAKE    SUNNY     73  63  68 NW3       29.97S
FARGO          MOSUNNY   76  66  71 CALM      29.93S HAZE
WAHPETON ARPT  SUNNY     72  63  73 W3        29.95S
$$

 *****  WEATHER ACROSS CENTRAL AND WESTERN NORTH DAKOTA  *****

CITY           SKY/WX    TMP DP  RH WIND       PRES   REMARKS
JAMESTOWN      CLOUDY    74  67  78 N8        29.97S HAZE
BISMARCK       MOSUNNY   76  64  66 W3        30.01S HAZE
MINOT          CLOUDY    73  63  70 CALM      29.99S HAZE
MINOT AFB      MOSUNNY   76  75  94 S5        29.98F FOG
GARRISON         N/A     73  65  75 CALM      30.00F
WILLISTON      SUNNY     75  63  66 CALM      30.00F HAZE
DICKINSON      SUNNY     77  62  59 S5        30.01F HAZE
HETTINGER      MOSUNNY   76  59  55 SW5       30.05F
$$

 *****  OTHER OBSERVATIONS NORTHEAST NORTH DAKOTA  *****

CITY           SKY/WX    TMP DP  RH WIND       PRES   REMARKS
WALHALLA       FAIR      73  66  78 MISG      29.96S HAZE
LANGDON        FAIR      75  63  64 N6        29.99S HAZE
CAVALIER       FAIR      73  63  68 N8        29.95S HAZE
GRAFTON        FAIR      73  68  83 N6        29.95S HAZE
CANDO          FAIR      75  64  69 CALM      29.99S HAZE
FORT TOTTEN      N/A     75  67  76 N3        29.95S
ROLLA            N/A     72  63  73 NE6       30.01S HAZE
RUGBY          NOT AVBL
 ***** THE ABOVE OBSERVATIONS ARE NON NWS ARE NOT QUALITY
        CONTROLLED AND MAY MIS-REPORT RAIN FOR SNOW...
$$

 *****  OTHER OBSERVATIONS SOUTHEAST NORTH DAKOTA *****

CITY           SKY/WX    TMP DP  RH WIND       PRES   REMARKS
COOPERSTOWN    NOT AVBL
VALLEY CITY    FAIR      73  72  94 N5        29.97S FOG
OAKES            N/A     73  73 100 W3        29.97F FOG
GWINNER          N/A    N/A N/A N/A MISG        N/A
SHEYENNE NWR     N/A     76  68  75 CALM      29.95
BUFFALO        NOT AVBL
WYNDMERE       NOT AVBL
 ***** THE ABOVE OBSERVATIONS ARE NON NWS ARE NOT QUALITY
       CONTROLLED AND MAY MIS-REPORT RAIN FOR SNOW...
$$

  *****  WEATHER ACROSS NORTHERN MINNESOTA  *****

CITY           SKY/WX    TMP DP  RH WIND       PRES   REMARKS
FLAG ISLAND    SUNNY     72  61  68 NW7       29.91S
WARROAD        SUNNY     73  64  73 NW6       29.92F HAZE
ROSEAU         SUNNY     73  66  78 N3        29.92F HAZE
HALLOCK        SUNNY     72  64  78 CALM      29.93S HAZE
THF RVR FALLS  SUNNY     72  63  73 NW7       29.94S
HALSTAD        NOT AVBL
FOSSTON        SUNNY     73  64  73 CALM      29.95S HAZE
BAUDETTE       SUNNY     73  63  70 NW12      29.90F HAZE
WASKISH        SUNNY     73  64  73 W5        29.91S
CROOKSTON      MOSUNNY   75  64  69 N7        29.94S HAZE
$$
  *****  WEATHER ACROSS CENTRAL AND WEST MINNESOTA  *****

CITY           SKY/WX    TMP DP  RH WIND       PRES   REMARKS
BEMIDJI        PTSUNNY   73  65  77 NW8       29.93S HAZE
PARK RAPIDS    CLOUDY    74  64  71 NW7       29.93F HAZE
WADENA         MOSUNNY   70  63  78 W5        29.94S
DETROIT LAKES    N/A     72  63  73 N9        29.96S HAZE
MOORHEAD       MOSUNNY   72  66  83 CALM      29.94F HAZE
FERGUS FALLS   SUNNY     70  64  83 CALM      29.94F
ELBOW LAKE     FAIR      69  64  84 NW3       29.96S
MORRIS MN      SUNNY     75  64  69 W5        29.94F
STAPLES        SUNNY     72  63  73 W8        29.94S
WHEATON        SUNNY     72  64  78 NW5       29.96F
$$
  *****  WEATHER ELSEWHERE ACROSS MINNESOTA  *****

CITY           SKY/WX    TMP DP  RH WIND       PRES   REMARKS
DULUTH         MOSUNNY   72  61  68 NW7       29.89F
INTRNTL FALLS  MOSUNNY   74  63  68 W10       29.88S HAZE
ELY            SUNNY     72  61  68 W6        29.87F
CLOQUET        SUNNY     72  59  64 W9        29.90S
BRAINERD       MOSUNNY   73  62  68 W8        29.93F
HIBBING        SUNNY     73  63  70 NW8       29.89F
ALEXANDRIA     MOSUNNY   71  64  78 W6        29.97F
SAINT CLOUD    SUNNY     74  61  63 W8        29.94F
MINNEAPOLIS    MOSUNNY   73  55  53 SW9       29.96F
$$

  *****  WEATHER ACROSS SOUTH DAKOTA  *****

CITY           SKY/WX    TMP DP  RH WIND       PRES   REMARKS
SIOUX FALLS    SUNNY     69  61  75 VRB5      30.01F
BROOKINGS      CLOUDY    66  61  82 S5        30.02F
WATERTOWN      MOSUNNY   72  65  78 W7        29.99S
HURON          MOSUNNY   70  65  84 VRB3      29.98F
SISSETON         N/A     77  66  68 NW5       29.94F
ABERDEEN       MOSUNNY   74  64  71 CALM      29.98S HAZE
MITCHELL       CLOUDY    66  64  93 S5        30.01F FOG
PIERRE         SUNNY     74  67  78 CALM      30.00F HAZE
MOBRIDGE       MOSUNNY   76  65  68 NW5       29.98F HAZE
RAPID CITY     SUNNY     74  61  63 VRB5      30.08F
$$

  *****  SOME WEATHER IN NEARBY STATES *****

CITY           SKY/WX    TMP DP  RH WIND       PRES   REMARKS
GLASGOW MT     SUNNY     75  58  55 SE6       29.98F HAZE
GREAT FALLS MT SUNNY     80  52  37 S7        29.98F
CHEYENNE WY    MOSUNNY   68  56  65 S10       30.24F
SCOTTSBLUFF NE SUNNY     76  55  48 SE8       30.12F
OMAHA NE       MOSUNNY   71  58  63 NW3       30.03R
DES MOINES IA  MOSUNNY   73  55  53 NE9       30.00S
DAVENPORT IA   SUNNY     71  58  63 NE5       29.99F
CHICAGO IL     CLOUDY    71  56  58 E5        29.97F
EAU CLAIRE WI  MOSUNNY   71  57  61 W7        29.96S
LA CROSSE WI   SUNNY     71  58  63 S5        29.98S
$$

  *****  SOME NATIONAL WEATHER *****

CITY           SKY/WX    TMP DP  RH WIND       PRES   REMARKS
LA GUARDIA NY  MOSUNNY   76  49  38 W3        29.99S
RALEIGH NC     CLOUDY    76  70  82 S5        29.98F
ATLANTA GA     LGT RAIN  72  68  87 W12       30.07R
NEW ORLEANS LA MOSUNNY   90  72  55 SW10      30.05R HX  97
OKLAHOMA CITY  PTSUNNY   80  72  76 W5        29.97S
ALBUQUERQUE NM PTSUNNY   76  58  53 S8        30.21S
SALT LAKE CITY MOSUNNY   85  50  29 SE6       30.02F
LOS ANGELES CA CLOUDY    65  62  90 S5        29.99R
BOISE ID       SUNNY     83  47  28 CALM      29.95R
SEATTLE WA     MOSUNNY   71  54  54 W3        29.98S
$$

*** WEATHER ACROSS MANITOBA...SASKATCHEWAN AND ONTARIO ***
                ***ONTARIO***

CITY           SKY/WX    TMP DP  RH WIND       PRES   REMARKS
GERALDTON      PTSUNNY   64  59  82 W9        29.75S FOG
THUNDER BAY    CLOUDY    73  64  73 NW7       29.79S
SIOUX LOOKOUT  NOT AVBL
TORONTO        MOSUNNY   70  43  37 VRB7      30.00F
BIG TROUT LK   PTSUNNY   63  54  72 N8        29.85R
PICKLE LAKE    CLOUDY    59  55  88 NW7       29.84R
DRYDEN         MOSUNNY   70  55  60 NW9G18    29.89R
KENORA         MOSUNNY   73  54  49 N13G21    29.92S
$$
                *** MANITOBA***

CITY           SKY/WX    TMP DP  RH WIND       PRES   REMARKS
BRANDON        CLOUDY    72  64  78 SW3       29.97F SMOKE
DAUPHIN        SUNNY     73  63  68 W7        29.93F HAZE
ISLAND LAKE    MOSUNNY   66  54  63 N3        29.93S
PILOT MOUND      N/A    N/A N/A N/A NW5         N/A
THE PAS        CLOUDY    72  61  68 S7        29.86F SMOKE
THOMPSON       PTSUNNY   73  52  46 SW7       29.88F
WINNIPEG       SUNNY     72  64  78 VRB3      29.94S SMOKE
LYNN LAKE      SUNNY     70  54  56 S8        29.81F HAZE
CHURCHILL      PTSUNNY   57  48  72 E13G20    29.92S
GILLAM         MOSUNNY   68  46  45 S7        29.90F
$$
                ***SASKATCHEWAN***

CITY           SKY/WX    TMP DP  RH WIND       PRES   REMARKS
ESTEVAN        SUNNY     68  66  94 VRB2      30.00F SMOKE
KINDERSLEY     MOSUNNY   73  63  68 S8        29.91F SMOKE
LLOYDMINSTER   MOSUNNY   79  59  50 SW8       29.84F
PRINCE ALBERT  PTSUNNY   77  64  65 S6        29.86F SMOKE
REGINA         SUNNY     75  64  69 S8        29.97F SMOKE



USA.gov is the U.S. government's official web portal to all federal, state and local government web resources and services.